Showing default

KUIPER-00236, 68582

Orbit data source: Space-Track

KUIPER-00236, 68582 is a payload satellite owned by Kuiper Systems (US) in LEO that was launched on Sat, 04 Apr 2026 UTC via an ATLAS V 551 launch vehicle from the Air Force Eastern Test Range (AFETR). Payload-class satellites include a variety of spacecraft equipped with specific instruments for various scientific and technological missions. These include communications satellites like Starlink; space stations such as the ISS; scientific satellites like the Hubble; Earth observation satellites from companies like Planet Labs, Umbra, and HawkEye 360; GPS; miniature CubeSats for education and research; and military/defense satellites.

Loading next visibility...
Identifier
68582, 2026-072K
Orbit
LEO
Country
Flag of USUS
Related business
Manufacturer
Kuiper Systems
Mission
Operational spacecraft
Bus & Motor
KUIPER, Unknown motor
Mass
~490 kg wet, ~490 kg dry
Launch date (UTC)
2026-04-04 (2 months ago)
Launch vehicle
ATLAS V 551
Launch site
Air Force Eastern Test Range (AFETR)
Object type
Payload
Rocket body
Debris
Shape & HBR
Unknown shape, 3.4 m
Radar Cross Section
Large (>1 m²)

Expand to show TLE details & history
Last TLE update: 21 hours ago

TLE from 21 hours ago
0 KUIPER-00236
1 68582U 26072K   26149.74075981  .00031588  00000-0  86543-3 0  9993
2 68582  51.8775 266.0575 0002710 299.5935  60.4782 15.37029454  8541
Epoch: 2026-05-29T17:46Z
TLE epoch observation values (Epoch: 2026-05-29T17:46:41.647Z)
Latitude
0.00002°
Longitude
112.11719°
Altitude
454.75 km
Speed
7.641 km/s
True Right ascension
17h 44m 13s
True Declination
0° 00' 00"
Sunlit
Object was in full shadow at epoch
Visualization orbit readout
Latitude
Unknown
Longitude
Unknown
Altitude
Unknown
Speed
Unknown
Apparent Right ascension
Unknown
Apparent Declination
Unknown
Sunlit
N/A
Visualization observer readout
Local Sidereal Time
00:44:36
Azimuth
Unknown
Elevation
Unknown
Doppler factor
Unknown
Orbital elements
Apogee altitude
457.217 km
Perigee altitude
453.513 km
Semi-major axis
6,833.502 km
Eccentricity
0.00027
Inclination
51.8775°
RAAN
266.0575°
Arg. of periapsis
299.5935°
True anomaly
60.50523°
Mean anomaly
60.4782°
Eccentric anomaly
60.49171°
Mean motion
3.84218 °/min
Orbital period
93.7 mins
BSTAR
0.00086543
Loading maneuver chart data...
Computing Atmospheric mass density...
Loading historical data...
Loading historical data...
Loading historical data...
Loading historical data...
Loading historical data...
Loading historical data...
Loading historical data...

Documentation

Showing up to 5 results
|